Location: Newark
(12.4436°N, 0.6167°W)
Time: 13:31:10
(UTC+00:00)

deb Explorer IX - All Passes

Search period start: 08 December 2019 00:00
Search period end: 18 December 2019 00:00
Orbit: 545 x 1105 km, 38.8° (Epoch: 08 December)

Date Brightness Start Highest point End Pass type
(mag) Time Alt. Az. Time Alt. Az. Time Alt. Az.
08 Dec - 00:37:20 10° NW 00:44:35 87° SW 00:51:03 10° SE night (unlit)
08 Dec - 02:27:37 10° W 02:31:27 16° SW 02:35:02 10° S night (unlit)
08 Dec - 13:26:01 10° SSW 13:29:59 26° SE 13:34:27 10° E daylight
08 Dec - 15:11:53 10° WSW 15:16:49 45° NW 15:22:35 10° NE daylight
08 Dec - 17:02:54 10° NW 17:05:10 12° NNW 17:07:33 10° N daylight
08 Dec - 22:28:34 10° NNW 22:34:27 26° NNE 22:40:10 10° E night (unlit)
09 Dec - 00:15:06 10° NW 00:22:24 85° SW 00:29:01 10° SE night (unlit)
09 Dec - 02:05:25 10° W 02:09:20 16° SW 02:13:01 10° S night (unlit)
09 Dec - 13:04:06 10° SSW 13:07:58 26° SE 13:12:19 10° E daylight
09 Dec - 14:50:03 10° WSW 14:54:47 42° NW 15:00:20 10° NE daylight
09 Dec - 16:41:24 10° NW 16:43:07 11° NNW 16:44:55 10° N daylight
09 Dec - 22:06:21 10° NNW 22:12:18 26° NNE 22:18:07 10° E night (unlit)
09 Dec - 23:52:53 10° NW 00:00:13 83° SW 00:06:58 10° SE night (unlit)
10 Dec - 01:43:14 10° W 01:47:12 16° SW 01:50:58 10° S night (unlit)
10 Dec - 12:42:11 10° SSW 12:45:58 26° SE 12:50:11 10° E daylight
10 Dec - 14:28:11 10° WSW 14:32:46 40° NW 14:38:05 10° NE daylight
10 Dec - 16:20:10 10° NNW 16:21:05 10° NNW 16:22:01 10° N daylight
10 Dec - 21:44:09 10° NNW 21:50:08 27° NNE 21:56:03 10° E night (unlit)
10 Dec - 23:30:40 10° NW 23:38:01 81° SW 23:44:54 10° SE night (unlit)
11 Dec - 01:21:02 10° W 01:25:04 16° SW 01:28:54 10° S night (unlit)
11 Dec - 12:20:17 10° SSW 12:23:58 26° SE 12:28:04 10° E daylight
11 Dec - 14:06:22 10° WSW 14:10:45 38° NW 14:15:51 10° NNE daylight
11 Dec - 21:21:57 10° NNW 21:27:57 27° NNE 21:33:57 10° E night (unlit)
11 Dec - 23:08:27 10° NW 23:15:48 80° SW 23:22:48 10° SE night (unlit)
12 Dec - 00:58:51 10° W 01:02:54 16° SW 01:06:47 10° S night (unlit)
12 Dec - 11:58:21 10° SSW 12:01:59 27° SE 12:05:58 10° ENE daylight
12 Dec - 13:44:31 10° W 13:48:45 35° NW 13:53:37 10° NNE daylight
12 Dec - 20:59:47 10° NNW 21:05:46 28° NNE 21:11:50 10° E night (unlit)
12 Dec - 22:46:15 10° NW 22:53:36 78° SW 23:00:41 10° SE night (unlit)
13 Dec - 00:36:42 10° W 00:40:44 16° SW 00:44:39 10° S night (unlit)
13 Dec - 11:36:24 10° SSW 11:40:00 27° SE 11:43:54 10° ENE daylight
13 Dec - 13:22:41 10° W 13:26:46 33° NNW 13:31:24 10° NNE daylight
13 Dec - 20:37:38 10° NNW 20:43:34 28° NNE 20:49:41 10° E visible
13 Dec - 22:24:05 10° NW 22:31:22 76° SW 22:38:33 10° SE night (unlit)
14 Dec - 00:14:33 10° WSW 00:18:34 16° SW 00:22:29 10° S night (unlit)
14 Dec - 11:14:27 10° SSW 11:18:01 27° SE 11:21:51 10° ENE daylight
14 Dec - 13:00:51 10° W 13:04:47 31° NNW 13:09:12 10° NNE daylight
14 Dec - 20:15:30 10° NNW 20:21:23 29° NNE 20:27:31 10° E visible
14 Dec - 22:01:54 10° NW 22:09:08 75° SW 22:16:23 10° SE night (unlit)
14 Dec - 23:52:25 10° WSW 23:56:23 15° SW 00:00:16 10° S night (unlit)
15 Dec - 10:52:29 10° SSW 10:56:02 28° SE 10:59:48 10° ENE daylight
15 Dec - 12:39:01 10° W 12:42:48 29° NNW 12:47:00 10° NNE daylight
15 Dec - 19:53:23 10° NNW 19:59:12 29° NNE 20:05:20 10° E visible
15 Dec - 21:39:45 10° NW 21:46:54 73° SW 21:54:11 10° SE night (unlit)
15 Dec - 23:30:19 10° WSW 23:34:12 15° SW 23:38:02 10° S night (unlit)
16 Dec - 10:30:30 10° SSW 10:34:04 29° SE 10:37:48 10° ENE daylight
16 Dec - 12:17:10 10° W 12:20:49 28° NNW 12:24:49 10° NNE daylight
16 Dec - 19:31:17 10° NNW 19:37:00 29° NE 19:43:08 10° E visible
16 Dec - 21:17:37 10° WNW 21:24:40 71° SW 21:31:58 10° SE visible
16 Dec - 23:08:14 10° WSW 23:12:00 15° SW 23:15:45 10° SSW night (unlit)
17 Dec - 10:08:30 10° SSW 10:12:05 30° SE 10:15:48 10° ENE daylight
17 Dec - 11:55:19 10° W 11:58:50 26° NNW 12:02:40 10° NNE daylight
17 Dec - 19:09:12 10° NNW 19:14:49 29° NE 19:20:54 10° E visible
17 Dec - 20:55:30 10° WNW 21:02:26 70° SW 21:09:44 10° SE visible
17 Dec - 22:46:11 10° WSW 22:49:48 14° SW 22:53:27 10° SSW night (unlit)
